Airfield :
LOGIN :

Register | Disclaimer

   EN    FR    IT 

 










Legend :    VFR   Marginal VFR   IFR   Intensive IFR   Very Intensive IFR
Visi :
Ceiling :
>= 8 km
>= 3000ft
5 to 8 km
1000 to 3000 ft
1500m to 5 km
500 to 1000 ft
800 to 1500m
200 to 500 ft
< 800m
< 200 ft
Symbols :   Thunderstorms  Fog  Heavy snow  Heavy precipitations  Wind > 20 kt
SIGMETs :     Misc.  Thunderstorms  Icing  Turbulence  Mountain Waves  Volcanic Ashes







- Airport Elevation : 288 ft
- IATA code : BZZ


EGVN - RAF Brize Norton

CURRENT METAR :
  • 281550Z 21013KT 9999 BKN018 OVC047 17/13 Q1007 BECMG SCT012

EXPIRED METARs :
  • 281450Z 22010KT 9999 SCT020 BKN030 18/13 Q1007 NOSIG
  • 281350Z 21012KT 9999 -RA FEW018 SCT020 BKN035 18/13 Q1007 TEMPO BKN025

TAF TAF EGVN
Valid from the 28 at 09:00 until the 29 at 09:00 UTC


280754Z 2809/2909 22010KT 9999 FEW020
TEMPO 2809/2818 SCT018
PROB30
TEMPO 2809/2816 5000 SHRA
PROB30
TEMPO 2812/2824 23015G25KT
TEMPO 2816/2901 7000 -RA
BECMG 2818/2821 BKN015
PROB40
TEMPO 2818/2824 4000 RA BKN012
BECMG 2823/2901 FEW015
No reported NOTAMs for that airfield.



MET'MAP, your aeronautical weather chart ! - Copyright ORBIFLY December 2007 - Disclaimer

ORBIFLY MET'MAP TEAM :

Programming & Development : Alexandra Zaïnal
Concept & Development : Baudouin d'Aumeries
Co-Development & Prog : Marc-Olivier Méhu
Technical & hardware support : Manuel Goepfert

Contact : metmap@orbifly.com




SOURCES & CREDITS :

   NOAA